Home > Weather > Alicante > Past weeks

Flag for Spain Past Weather in Alicante, Spain — Yesterday and Last 2 Weeks

Now
63 °F

Clear.


Feels Like: 63 °F
Forecast: 56 / 82 °F
Wind: 2 mph from South

Location: Alicante / El Altet

Current Time: May 26, 2016 at 2:48:17 AM

Latest Report: May 26, 2016 at 2:30 AM


Visibility: 6 mi

Pressure: 29.86 "Hg

Humidity: 88%

Dew Point: 59 °F

Location of AlicanteLocation

Past Weather in Alicante — Graph

°F

Alicante Temperature Yesterday

Maximum temperature yesterday: 73 °F (at 3:30 PM)
Minimum temperature yesterday: 61 °F (at 5:30 AM)
Average temperature yesterday: 68 °F

High & Low Weather Summary for the Past Weeks

 TemperatureHumidityPressure
High86 °F (May 22, 8:30 PM)94% (May 19, 1:30 AM)30.24 "Hg (May 19, 1:30 AM)
Low55 °F (May 11, 5:30 AM)23% (May 22, 10:00 PM)29.68 "Hg (May 11, 6:00 PM)
Average67 °F62%29.98 "Hg
* Reported May 11 1:00 AM — May 26 1:30 AM, Alicante, Weather by CustomWeather, © 2016

Note: Actual official high and low records may vary slightly from our data, if they occured in-between our weather recording intervals... More about our weather records

Advertising

Alicante Weather History for the Previous 24 Hours

Scroll right to see more
 ConditionsComfort  
Time TempWeatherWind HumidityBarometerVisibility
1:30 AM
Thu, May 26
64 °FClear.1 mph88%29.86 "Hg6 mi
1:00 AM64 °FClear.1 mph88%29.89 "Hg6 mi
12:30 AM66 °FClear.2 mph83%29.89 "Hg10 mi
12:00 AM66 °FPassing clouds.3 mph88%29.89 "HgN/A
11:30 PM
Wed, May 25
66 °FClear.1 mph83%29.89 "Hg10 mi
11:00 PM66 °FClear.2 mph83%29.86 "Hg10 mi
10:30 PM68 °FPassing clouds.3 mph78%29.86 "HgN/A
10:00 PM70 °FSunny.1 mph69%29.83 "Hg10 mi
9:30 PM70 °FSunny.2 mph69%29.83 "Hg10 mi
9:00 PM70 °FPassing clouds.5 mph69%29.83 "HgN/A
8:30 PM72 °FPassing clouds.5 mph61%29.83 "HgN/A
8:00 PM72 °FPassing clouds.5 mph61%29.83 "HgN/A
7:30 PM72 °FPassing clouds.6 mph69%29.83 "HgN/A
7:00 PM70 °FPassing clouds.5 mph73%29.83 "HgN/A
6:30 PM70 °FPassing clouds.6 mph73%29.83 "HgN/A
6:00 PM72 °FPassing clouds.8 mph69%29.83 "HgN/A
5:30 PM72 °FPassing clouds.9 mph69%29.83 "HgN/A
5:00 PM72 °FPassing clouds.9 mph69%29.83 "HgN/A
4:30 PM72 °FPassing clouds.10 mph69%29.83 "HgN/A
4:00 PM72 °FPassing clouds.9 mph69%29.83 "HgN/A
3:30 PM73 °FPassing clouds.10 mph65%29.86 "HgN/A
3:00 PM72 °FPassing clouds.9 mph69%29.86 "HgN/A
2:30 PM72 °FPassing clouds.9 mph69%29.86 "HgN/A
2:00 PM72 °FPassing clouds.8 mph65%29.86 "HgN/A
1:30 PM72 °FPassing clouds.10 mph69%29.86 "HgN/A
1:00 PM72 °FPassing clouds.12 mph65%29.86 "HgN/A
12:30 PM72 °FPassing clouds.10 mph69%29.86 "HgN/A
12:00 PM70 °FPassing clouds.9 mph73%29.86 "HgN/A
11:30 AM70 °FSunny.9 mph73%29.86 "Hg10 mi
11:00 AM72 °FPassing clouds.7 mph69%29.86 "HgN/A
10:30 AM72 °FPassing clouds.1 mph65%29.86 "HgN/A
10:00 AM70 °FSunny.3 mph73%29.86 "Hg10 mi
9:30 AM68 °FPassing clouds.6 mph73%29.86 "HgN/A
9:00 AM66 °FPassing clouds.3 mph78%29.86 "HgN/A
8:30 AM64 °FPassing clouds.3 mph78%29.83 "HgN/A
8:00 AM63 °FSunny.2 mph88%29.83 "Hg10 mi
7:30 AM63 °FPassing clouds.2 mph88%29.83 "HgN/A
7:00 AM61 °FPassing clouds.2 mph88%29.83 "Hg6 mi
6:30 AM61 °FPassing clouds.2 mph88%29.83 "Hg6 mi
6:00 AM61 °FPassing clouds.2 mph88%29.83 "Hg6 mi
5:30 AM61 °FPassing clouds.1 mph94%29.83 "Hg6 mi
5:00 AM63 °FPassing clouds.1 mph88%29.83 "HgN/A
4:30 AM63 °FPassing clouds.3 mph88%29.83 "HgN/A
4:00 AM64 °FPassing clouds.2 mph83%29.83 "HgN/A
3:30 AM64 °FPassing clouds.2 mph88%29.83 "HgN/A
3:00 AM64 °FPassing clouds.2 mph88%29.83 "HgN/A
2:30 AM63 °FPassing clouds.5 mph94%29.86 "HgN/A
2:00 AM63 °FPassing clouds.3 mph88%29.86 "HgN/A
Weather by CustomWeather, © 2016

See weather overviewHow to use our weather pages